Location: Laguna de la Cañada del Gallo
(40.3974°N, 5.2096°W)
Time: 11:13:19
(UTC+00:00)

CSL-04 Debris - Pass Details

Date: 18 April 2024
Orbit: 823 x 844 km, 98.8° (Epoch: 22 May)

Event Time Altitude Azimuth Distance (km) Brightness Sun altitude
Exits shadow 20:04:13 - 159° (SSE) 2,836 6.5 -11.7°
Reaches altitude 10° 20:05:14 10° 158° (SSE) 2,440 6.2 -11.8°
Maximum altitude 20:10:38 75° 74° (ENE) 871 4.1 -12.7°
Drops below altitude 10° 20:16:05 10° 350° (N) 2,469 7.2 -13.7°
Sets 20:18:28 0° 349° (N) 3,409 8.0 -14.1°
